Montpelier, VT

3:19 PM EST on November 20, 2019 (GMT -0500)
Knapp State

Weather History for KMPV - August, 2019

Change the Weather History Date:

Wednesday, August 7, 2019

  Actual Average Record
Temperature  
Mean Temperature 70 °F 66 °F  
Max Temperature 81 °F 78 °F 89 °F (2001)
Min Temperature 60 °F 55 °F 39 °F (1964)
Degree Days  
Heating Degree Days 0 2  
Month to date heating degree days 9 10  
Since 1 June heating degree days 162 171  
Since 1 July heating degree days 18 50  
Cooling Degree Days 6 3  
Month to date cooling degree days 7 21  
Year to date cooling degree days 165 189  
Since 1 June cooling degree days 164 179  
Growing Degree Days 20 (Base 50)    
Moisture  
Dew Point 64 °F    
Average Humidity 92    
Maximum Humidity 100    
Minimum Humidity 62    
Precipitation  
Precipitation 0.05 in 0.15 in 1.62 in (1990)
Month to date precipitation 1.36 1.07  
Year to date precipitation 31.91 21.86  
Sea Level Pressure  
Sea Level Pressure 29.84 in    
Wind  
Wind Speed 2 mph ()    
Max Wind Speed 29 mph    
Max Gust Speed 37 mph    
Visibility 7.3 miles    
Events Fog , Rain , Thunderstorm    
T = Trace of Precipitation, MM = Missing Value Source: Averaged Metar Reports

Daily Weather History Graph

Daily Weather History Graph

Search for Another Location

Airport or City:

Astronomy

Aug. 07, 2019 Rise Set
Actual Time 5:44 AM EDT 8:07 PM EDT
Civil Twilight 5:11 AM EDT 8:39 PM EDT
Nautical Twilight 4:31 AM EDT 9:19 PM EDT
Astronomical Twilight 3:46 AM EDT 10:04 PM EDT
Moon 1:29 PM EDT (8/7) No Moon Set
Length of Visible Light 15h 27m
Length of Day
14h 22m
Waxing Crescent, 49% of the Moon is Illuminated
Aug 7
Waxing Crescent
Aug 7
First Quarter
Aug 15
Full
Aug 23
Last Quarter
Aug 30
New

Hourly Weather History & Observations

Time (EDT) Temp. Heat Index Dew Point Humidity Pressure Visibility Wind Dir Wind Speed Gust Speed Precip Events Conditions
12:03 AM 62.1 °F - 62.1 °F 100% 29.86 in 1.2 mi Calm Calm - N/A   Scattered Clouds
12:05 AM 62.1 °F - 62.1 °F 100% 29.87 in 2.0 mi Calm Calm - N/A   Scattered Clouds
12:22 AM 63.0 °F - 62.1 °F 97% 29.86 in 7.0 mi Calm Calm - N/A   Partly Cloudy
12:51 AM 62.1 °F - 62.1 °F 100% 29.85 in 9.0 mi Calm Calm - N/A   Clear
1:51 AM 64.9 °F - 64.0 °F 97% 29.82 in 10.0 mi ESE 5.8 mph - N/A   Overcast
2:15 AM 62.1 °F - 62.1 °F 100% 29.85 in 2.5 mi Calm Calm - N/A   Scattered Clouds
2:18 AM 62.1 °F - 62.1 °F 100% 29.85 in 1.2 mi North 3.5 mph - N/A   Scattered Clouds
2:26 AM 63.0 °F - 63.0 °F 100% 29.85 in 2.5 mi Calm Calm - N/A   Partly Cloudy
2:33 AM 63.0 °F - 63.0 °F 100% 29.85 in 9.0 mi Calm Calm - N/A   Partly Cloudy
2:51 AM 63.0 °F - 63.0 °F 100% 29.84 in 8.0 mi Calm Calm - N/A   Partly Cloudy
3:46 AM 62.6 °F - 62.6 °F 100% 29.86 in 2.5 mi Calm Calm - N/A   Mostly Cloudy
3:49 AM 60.8 °F - 60.8 °F 100% 29.86 in 1.2 mi Calm Calm - N/A   Mostly Cloudy
3:51 AM 61.0 °F - 61.0 °F 100% 29.85 in 0.8 mi Calm Calm - N/A   Mostly Cloudy
4:51 AM 61.0 °F - 61.0 °F 100% 29.84 in 1.0 mi Calm Calm - N/A   Mist
5:01 AM 61.0 °F - 61.0 °F 100% 29.86 in 4.0 mi Calm Calm - N/A   Mostly Cloudy
5:19 AM 61.0 °F - 61.0 °F 100% 29.86 in 10.0 mi Calm Calm - N/A   Scattered Clouds
5:51 AM 61.0 °F - 61.0 °F 100% 29.86 in 10.0 mi Calm Calm - N/A   Clear
6:19 AM 62.1 °F - 62.1 °F 100% 29.88 in 2.5 mi Calm Calm - N/A   Scattered Clouds
6:21 AM 61.0 °F - 61.0 °F 100% 29.88 in 1.0 mi Calm Calm - N/A   Mist
6:28 AM 61.0 °F - 61.0 °F 100% 29.88 in 0.2 mi Calm Calm - N/A Fog Fog
6:51 AM 62.1 °F - 62.1 °F 100% 29.88 in 0.5 mi Calm Calm - N/A Fog Fog
6:54 AM 62.1 °F - 62.1 °F 100% 29.89 in 1.8 mi Calm Calm - N/A   Mostly Cloudy
6:56 AM 62.1 °F - 62.1 °F 100% 29.89 in 4.0 mi Calm Calm - N/A   Mostly Cloudy
7:51 AM 64.0 °F - 64.0 °F 100% 29.88 in 10.0 mi Calm Calm - N/A   Clear
8:51 AM 66.9 °F - 66.0 °F 97% 29.88 in 10.0 mi NE 3.5 mph - N/A   Scattered Clouds
9:37 AM 73.0 °F - 66.9 °F 81% 29.88 in 10.0 mi Variable 5.8 mph - N/A   Mostly Cloudy
9:51 AM 73.0 °F - 66.9 °F 81% 29.87 in 10.0 mi Variable 6.9 mph - N/A   Mostly Cloudy
10:07 AM 72.0 °F - 66.0 °F 81% 29.88 in 10.0 mi SSE 11.5 mph - N/A   Mostly Cloudy
10:51 AM 75.0 °F - 66.9 °F 76% 29.86 in 10.0 mi SSE 10.4 mph - N/A   Scattered Clouds
11:18 AM 75.9 °F - 66.9 °F 74% 29.87 in 10.0 mi SE 8.1 mph - N/A   Mostly Cloudy
11:27 AM 77.0 °F - 68.0 °F 74% 29.87 in 10.0 mi South 8.1 mph - N/A   Scattered Clouds
11:51 AM 75.9 °F - 66.0 °F 71% 29.86 in 10.0 mi SSE 10.4 mph - N/A   Clear
12:51 PM 77.0 °F - 66.9 °F 71% 29.85 in 10.0 mi South 8.1 mph - N/A   Clear
1:51 PM 78.1 °F - 66.9 °F 68% 29.84 in 10.0 mi SSE 8.1 mph - N/A   Scattered Clouds
2:51 PM 79.0 °F - 66.0 °F 64% 29.82 in 10.0 mi SE 8.1 mph - N/A   Mostly Cloudy
3:51 PM 81.0 °F 83.3 °F 66.9 °F 62% 29.79 in 10.0 mi SSE 8.1 mph - N/A   Mostly Cloudy
4:51 PM 77.0 °F - 69.1 °F 76% 29.79 in 10.0 mi Calm Calm - N/A   Mostly Cloudy
5:19 PM 73.9 °F - 64.9 °F 73% 29.81 in 10.0 mi North - - N/A Thunderstorm Thunderstorm
5:37 PM 69.1 °F - 63.0 °F 81% 29.82 in 10.0 mi South 13.8 mph 25.3 mph 0.00 in   Overcast
5:46 PM 69.8 °F - 62.6 °F 78% 29.82 in 5.0 mi SW 6.9 mph - 0.03 in Rain , Thunderstorm Rain
5:51 PM 68.0 °F - 64.0 °F 87% 29.81 in 4.0 mi Variable 4.6 mph - 0.04 in Rain , Thunderstorm Rain
6:01 PM 68.0 °F - 66.0 °F 93% 29.81 in 10.0 mi South 6.9 mph - 0.00 in   Overcast
6:51 PM 68.0 °F - 66.9 °F 96% 29.81 in 10.0 mi East 4.6 mph - 0.00 in   Scattered Clouds
7:51 PM 68.0 °F - 66.9 °F 96% 29.81 in 10.0 mi Calm Calm - N/A   Clear
8:43 PM 66.9 °F - 66.0 °F 97% 29.81 in 10.0 mi Calm Calm - 0.00 in   Overcast
8:51 PM 66.9 °F - 66.0 °F 97% 29.81 in 10.0 mi Calm Calm - 0.00 in   Overcast
9:16 PM 66.0 °F - 66.0 °F 100% 29.82 in 9.0 mi Calm Calm - 0.01 in Rain Light Rain
9:47 PM 66.2 °F - 66.2 °F 100% 29.82 in 10.0 mi Calm Calm - 0.01 in   Overcast
9:51 PM 66.9 °F - 66.9 °F 100% 29.81 in 10.0 mi Calm Calm - 0.01 in   Overcast
10:00 PM 66.9 °F - 66.9 °F 100% 29.82 in 10.0 mi West 3.5 mph - N/A   Overcast
10:13 PM 66.9 °F - 66.9 °F 100% 29.81 in 10.0 mi Calm Calm - N/A   Overcast
10:51 PM 68.0 °F - 66.9 °F 96% 29.79 in 10.0 mi Calm Calm - N/A   Overcast
11:19 PM 66.9 °F - 66.0 °F 97% 29.79 in 10.0 mi ESE 3.5 mph - N/A   Overcast
11:48 PM 68.0 °F - 66.2 °F 94% 29.78 in 10.0 mi Calm Calm - N/A   Mostly Cloudy
11:51 PM 68.0 °F - 66.9 °F 96% 29.77 in 10.0 mi Variable 3.5 mph - N/A   Mostly Cloudy